Vertical_Velocity
0 6 4 0 -9 -3 -1 -5 -0 -0 -3 2 -1 -13 0 4 1 -0 14 0 -2 5 5 -3 -2 2 1 0 1 2 2 1 -5 -5 2 -2 -0 -3 -3 -1 -2 -0 -5 -1 1 -0 -3 -3 1
2 4 -1 2 -4 -1 -7 -3 0 -0 -3 -2 -3 1 -5 6 1 6 -4 4 -2 3 4 -5 -4 -3 3 3 1 2 -0 0 0 -9 2 1 1 1 3 2 -2 -5 -1 -2 -0 1 0 0 -1
-1 8 3 -3 0 -3 -3 0 0 4 3 -2 -2 -2 1 4 4 4 -5 4 2 5 5 2 4 -2 -1 -1 3 4 1 -6 3 -2 1 -1 -0 1 -1 -5 -2 -2 -4 -3 -2 -0 -0 1 -3
2 5 2 -3 -2 -14 -4 -1 0 3 10 -2 -1 -1 -5 3 -1 5 1 8 -1 2 -2 0 1 2 -0 1 -2 7 -14 -1 2 3 -3 1 -1 -3 -3 -3 -3 -0 -4 -2 -1 -3 -1 -2 -1
4 5 0 0 -6 -0 1 4 -0 -0 0 3 -3 4 1 3 8 9 14 11 12 34 5 -1 8 8 6 18 -4 -5 -2 1 -4 2 -1 -1 -1 -4 -1 -1 -0 -0 1 0 -2 -1 0 -1 -3
-5 5 -2 -0 -4 -2 1 3 -2 -0 2 8 -4 -3 -0 0 1 -1 3 7 11 -21 31 7 18 6 2 -9 -3 7 -5 -2 -1 -3 -3 1 -1 -3 -2 -1 -2 -2 -1 -5 -5 -3 0 -7 -0
1 -1 -3 -1 -4 -1 1 7 -1 -1 -0 4 4 -2 7 8 2 6 -0 18 41 18 14 10 -15 -21 3 -1 3 0 -8 3 -0 -4 -2 0 -2 -3 -3 -3 -3 -2 -3 -3 -1 -4 -0 0 -4
6 -3 -0 -2 -2 2 -1 -3 -0 4 -2 8 0 -1 0 4 4 2 10 -4 -15 -3 -10 -24 -10 3 1 7 3 -1 -2 -2 -3 -5 -4 -3 -3 -2 -6 -3 -5 2 -1 -2 -3 1 -1 -0 -3
12 -3 -1 -7 -0 -3 5 -1 -13 -3 9 -1 1 -0 4 8 7 4 -3 9 -7 -2 -8 -6 -1 1 6 -6 7 -1 -4 4 -2 -1 -5 -7 -1 -3 -5 -4 -3 -1 1 -3 -2 -2 -5 -0 4
0 -1 -6 -1 -1 -1 -1 -5 -4 2 -1 6 0 9 -8 1 9 -2 0 3 -9 -10 1 -6 1 4 1 6 -2 -2 -3 2 -5 -5 -3 2 -8 1 -2 0 4 1 -3 1 -3 -3 -5 -4 -8
-6 -4 -3 0 -3 -1 -1 2 11 -1 -1 2 -7 -0 -2 -4 11 -3 -0 -23 -20 -24 -11 -2 2 6 1 -8 -5 5 -1 -8 -4 -1 -3 -5 2 2 -2 2 -2 5 4 -2 -0 1 2 2 -4
1 -1 3 -2 7 -6 1 6 1 2 10 -0 -9 -0 -5 -9 5 3 -13 -6 -12 -1 -4 3 -0 -3 -7 2 7 -2 -5 1 1 1 2 7 11 2 -2 3 4 -8 3 1 4 2 3 4 -2
4 -2 3 -0 6 -4 -1 1 -3 4 10 1 3 3 -0 4 4 2 -3 -0 1 -1 5 0 2 1 9 4 -5 0 -0 2 -2 0 5 4 5 3 0 -4 3 3 2 6 -4 -2 1 -1 -2
-2 3 -1 7 6 2 -8 -1 -1 4 -2 -1 -10 4 7 3 -4 -1 1 -3 -1 3 4 6 -0 -2 -1 -5 8 -3 3 -6 -2 2 4 2 -5 -8 -2 2 -0 -1 2 4 -4 1 -4 -2 -4
5 -1 2 4 6 -3 -8 -8 -3 -4 1 -3 -3 1 4 7 6 -4 2 0 -1 1 -3 -2 -4 4 1 1 -2 -4 -2 2 7 -3 2 3 -1 1 -4 1 2 -2 3 -2 -0 -2 -2 0 -6
-2 -4 -1 -4 -0 2 -15 -6 -4 -5 2 2 1 -1 8 6 -1 4 3 -3 0 -1 -0 0 1 1 0 -2 -1 -1 5 4 6 -7 -10 -1 -4 5 -2 4 -1 1 2 -3 -4 -4 -6 -4 1
-3 -1 -0 -0 -1 -2 -6 -3 -7 -2 3 3 1 1 4 7 7 4 2 -2 -4 -4 -7 -3 -0 -7 1 -2 3 3 -1 -4 3 -4 -6 -2 2 3 -3 0 2 4 -6 -6 -2 -0 2 1 0
-1 -1 -2 -2 3 1 2 -1 -1 1 1 -1 -2 4 0 2 0 -0 -0 -1 -2 -0 -3 -2 -2 4 2 -1 1 -8 -4 -1 -0 1 -1 1 2 -1 2 -2 1 -4 -3 -0 -1 -2 -2 -1 -2
0 2 1 -2 -3 -5 -2 0 -2 -3 6 3 4 3 2 1 -0 1 6 -2 4 0 -2 2 -9 -4 -3 -8 -4 1 7 0 2 1 1 1 2 -2 -0 -5 -3 -1 1 1 0 1 -2 -3 -2
0 2 -3 -4 1 -6 1 -1 -1 0 -3 -8 -5 2 -2 3 7 8 7 3 -3 -10 -4 -2 -5 -1 0 5 3 -2 -0 1 4 4 2 -0 -4 1 -0 1 -2 -2 2 3 0 -2 -3 -2 -2
-0 2 -2 -2 -1 -2 -1 -3 2 0 2 8 8 1 4 -7 -4 0 2 3 6 5 -1 2 2 -0 3 1 0 2 4 3 1 1 -4 -5 -1 -2 -2 0 -1 -1 -4 -5 -3 -1 -2 -0 -1
2 -1 1 1 0 -4 -6 -4 0 -1 1 1 3 2 -1 -1 7 1 -3 6 3 2 5 3 3 2 -2 2 8 -4 -5 -4 -2 -2 -3 -0 -0 -1 -1 -2 0 -0 -2 0 -1 -1 2 2 -2
-9 1 -0 1 1 -4 2 -7 -13 1 -1 -1 -1 4 2 -0 -5 -6 -6 4 3 0 -2 2 3 -2 -2 -1 3 -1 -3 1 -1 1 -1 0 3 3 4 0 -4 -2 -2 -1 1 0 0 -1 1
-1 1 -1 -2 -1 -4 -4 -6 -6 -2 -12 1 -4 1 2 8 4 7 7 1 -0 -0 2 1 -2 5 1 4 2 2 -0 1 -3 -3 -2 1 1 -3 -4 -2 4 2 2 1 0 -1 0 1 -0
-0 -3 -4 -9 -9 -6 -1 0 -19 -4 -1 -5 -6 -2 9 1 4 -0 -7 -2 -2 -8 1 1 3 -0 -0 7 2 1 6 5 6 5 4 1 2 3 3 -2 2 2 2 -2 -4 -2 -0 -1 -1
-1 -5 -6 -4 -2 -4 -3 -2 -11 -6 -1 -4 -2 5 7 3 2 -1 -4 1 1 -3 -4 -2 1 2 2 2 0 4 8 4 3 3 -0 1 1 -2 -13 -2 -3 -5 -4 -5 -1 1 2 0 -1
-0 -3 -7 -5 -1 -5 -4 -4 -6 0 0 4 -1 -1 5 0 -1 2 5 2 -3 -5 -6 3 2 7 1 1 -1 -0 3 4 3 3 8 3 -1 8 3 -1 -5 -4 -4 -2 1 -2 -4 -2 2
-5 -4 -11 -5 -2 -0 -2 0 -2 1 2 1 3 1 0 -1 0 1 -2 -2 0 0 0 3 7 2 2 0 -0 2 -0 2 3 1 -11 4 -4 -6 0 4 1 -7 -3 -1 -2 -0 4 3 1
-1 -0 0 -7 -4 -4 -2 -7 -1 -1 -1 -1 -1 -2 -4 -4 -4 -3 -1 0 -2 -2 -3 -4 -1 4 1 1 3 3 2 -1 1 -1 4 -1 -13 1 -6 -4 -6 -1 -4 -2 0 -0 -0 -3 -1
-2 -2 -1 -7 -5 -2 -6 -13 -0 -1 -1 -2 1 -1 0 -3 -4 -3 -2 -3 -5 -5 -6 -7 -2 -0 5 5 3 1 1 -2 2 -2 8 -13 -4 1 -5 0 -2 -6 0 -2 -1 -3 -7 -5 0
Height
1517 1518 1518 1519 1530 1525 1527 1515 1500 1501 1501 1502 1495 1495 1506 1508 1512 1525 1520 1521 1526 1527 1532 1537 1542 1547 1550 1554 1556 1557 1556 1558 1560 1565 1566 1564 1568 1568 1570 1571 1572 1574 1576 1575 1576 1574 1573 1574 1574
1516 1518 1518 1518 1529 1538 1526 1499 1503 1496 1499 1501 1504 1507 1505 1513 1514 1518 1520 1522 1527 1528 1530 1536 1542 1548 1551 1553 1556 1557 1557 1559 1561 1564 1568 1567 1569 1571 1572 1573 1573 1576 1577 1578 1579 1578 1577 1577 1577
1515 1516 1518 1518 1525 1530 1521 1495 1496 1497 1497 1501 1505 1508 1511 1518 1519 1520 1522 1524 1527 1530 1533 1537 1543 1546 1550 1552 1555 1557 1557 1561 1563 1565 1568 1570 1570 1573 1572 1577 1576 1578 1578 1581 1581 1582 1581 1580 1581
1514 1516 1516 1519 1520 1501 1501 1496 1492 1497 1500 1502 1503 1509 1516 1520 1521 1521 1524 1525 1527 1527 1532 1539 1544 1547 1551 1552 1554 1556 1560 1564 1565 1567 1568 1570 1572 1573 1575 1577 1580 1580 1581 1583 1584 1584 1584 1584 1584
1513 1513 1518 1518 1508 1499 1491 1494 1495 1498 1501 1503 1504 1513 1518 1521 1522 1523 1526 1526 1528 1520 1529 1539 1544 1549 1550 1551 1555 1558 1562 1564 1566 1570 1570 1572 1573 1575 1578 1579 1582 1583 1584 1584 1586 1586 1585 1585 1584
1514 1509 1521 1523 1504 1496 1499 1500 1502 1505 1503 1504 1506 1510 1520 1522 1522 1524 1525 1527 1528 1531 1535 1541 1544 1548 1551 1554 1557 1560 1562 1565 1568 1570 1573 1574 1575 1578 1579 1581 1582 1585 1585 1587 1588 1589 1588 1586 1586
1510 1513 1518 1511 1504 1511 1512 1506 1504 1508 1504 1504 1506 1510 1519 1520 1521 1524 1526 1528 1516 1529 1537 1542 1545 1549 1554 1557 1559 1559 1563 1566 1569 1571 1574 1576 1578 1580 1582 1583 1584 1586 1586 1587 1589 1589 1590 1586 1585
1506 1509 1513 1508 1503 1521 1512 1510 1510 1507 1508 1506 1507 1514 1519 1518 1521 1524 1526 1528 1520 1523 1534 1543 1547 1551 1553 1557 1559 1561 1564 1568 1570 1573 1576 1578 1579 1580 1582 1584 1586 1587 1585 1585 1589 1589 1588 1587 1586
1503 1515 1517 1503 1500 1508 1504 1501 1509 1509 1513 1507 1509 1512 1516 1521 1524 1526 1527 1531 1532 1537 1542 1547 1554 1557 1556 1558 1560 1562 1567 1568 1570 1573 1575 1577 1579 1580 1582 1583 1586 1587 1587 1586 1589 1588 1587 1589 1586
1501 1515 1503 1495 1495 1503 1502 1496 1503 1506 1510 1512 1513 1514 1517 1523 1526 1528 1532 1535 1538 1543 1543 1546 1553 1557 1557 1558 1561 1565 1567 1569 1571 1574 1576 1576 1578 1580 1581 1584 1584 1586 1585 1586 1588 1587 1587 1585 1585
1497 1503 1494 1495 1497 1500 1501 1501 1502 1500 1509 1511 1514 1519 1518 1524 1529 1532 1536 1539 1538 1535 1546 1548 1554 1557 1558 1559 1563 1564 1566 1569 1572 1573 1575 1577 1577 1579 1583 1584 1586 1586 1586 1586 1586 1586 1586 1584 1583
1498 1492 1489 1496 1492 1496 1502 1501 1503 1504 1507 1503 1510 1511 1519 1526 1528 1532 1533 1536 1534 1538 1544 1550 1554 1556 1558 1561 1563 1564 1567 1568 1573 1574 1576 1576 1578 1579 1581 1583 1582 1583 1584 1583 1585 1585 1584 1583 1581
1493 1487 1491 1492 1493 1500 1499 1501 1499 1504 1506 1510 1517 1518 1520 1525 1528 1531 1534 1536 1537 1540 1545 1550 1552 1556 1559 1561 1563 1563 1570 1567 1573 1574 1574 1575 1577 1578 1581 1581 1582 1583 1585 1583 1582 1583 1583 1582 1580
1484 1484 1491 1497 1496 1499 1501 1505 1503 1506 1511 1515 1518 1522 1523 1523 1524 1529 1533 1536 1539 1543 1547 1550 1551 1556 1559 1560 1562 1565 1568 1570 1571 1572 1575 1574 1576 1579 1582 1580 1581 1582 1583 1581 1580 1581 1578 1578 1578
1482 1486 1488 1492 1490 1503 1498 1506 1512 1505 1507 1513 1517 1518 1521 1523 1526 1524 1529 1535 1539 1543 1546 1548 1552 1556 1559 1560 1562 1567 1567 1567 1568 1572 1574 1574 1575 1576 1577 1578 1578 1580 1579 1579 1577 1575 1577 1577 1575
1486 1488 1501 1488 1496 1502 1501 1519 1502 1508 1509 1511 1512 1515 1519 1524 1526 1527 1528 1533 1537 1540 1543 1548 1553 1555 1558 1559 1564 1566 1565 1566 1568 1570 1572 1573 1573 1575 1574 1575 1575 1575 1576 1574 1574 1574 1573 1571 1569
1493 1504 1496 1493 1490 1497 1500 1511 1500 1504 1506 1507 1510 1513 1518 1520 1523 1526 1529 1530 1533 1538 1543 1548 1551 1554 1556 1559 1562 1563 1564 1567 1567 1567 1569 1569 1571 1572 1570 1572 1573 1572 1571 1571 1571 1570 1568 1566 1564
1507 1502 1501 1496 1495 1492 1498 1504 1499 1501 1501 1503 1506 1510 1515 1518 1520 1524 1527 1529 1533 1536 1541 1544 1548 1551 1554 1558 1559 1563 1565 1565 1565 1565 1566 1567 1568 1569 1569 1569 1569 1569 1569 1569 1568 1566 1564 1563 1560
1495 1502 1501 1490 1486 1494 1495 1495 1497 1497 1500 1503 1506 1509 1513 1515 1519 1523 1526 1528 1531 1535 1537 1540 1545 1550 1553 1556 1558 1561 1561 1561 1562 1564 1564 1565 1567 1567 1566 1566 1566 1566 1566 1566 1564 1563 1561 1560 1557
1499 1504 1499 1487 1478 1488 1492 1493 1491 1495 1495 1499 1503 1507 1511 1515 1518 1522 1526 1527 1527 1531 1534 1538 1544 1548 1550 1553 1556 1557 1558 1559 1560 1561 1561 1563 1564 1566 1565 1565 1565 1565 1565 1563 1562 1560 1559 1557 1555
1498 1502 1496 1496 1484 1482 1492 1498 1497 1494 1494 1496 1499 1502 1507 1510 1515 1519 1523 1525 1527 1530 1532 1536 1540 1545 1547 1551 1553 1555 1556 1556 1557 1558 1559 1561 1563 1562 1562 1562 1562 1562 1561 1560 1559 1557 1555 1554 1553
1500 1488 1490 1491 1496 1509 1489 1523 1500 1497 1494 1494 1497 1499 1502 1507 1511 1515 1520 1523 1526 1529 1533 1535 1538 1541 1544 1546 1549 1550 1551 1552 1554 1556 1557 1559 1560 1560 1560 1559 1559 1558 1557 1557 1555 1554 1553 1551 1549
1495 1486 1489 1490 1495 1499 1498 1518 1509 1492 1499 1495 1494 1494 1496 1500 1504 1509 1516 1520 1522 1526 1530 1533 1537 1539 1541 1542 1545 1547 1549 1551 1552 1553 1554 1556 1557 1557 1557 1556 1555 1555 1554 1554 1552 1550 1549 1547 1546
1485 1485 1488 1495 1503 1520 1496 1506 1511 1496 1486 1488 1489 1493 1493 1497 1499 1505 1512 1516 1520 1524 1528 1530 1533 1536 1538 1540 1543 1545 1546 1546 1547 1550 1552 1553 1554 1554 1554 1553 1553 1552 1552 1550 1548 1546 1545 1543 1542
1490 1497 1524 1533 1538 1533 1500 1506 1498 1481 1479 1480 1484 1488 1491 1494 1498 1504 1508 1513 1517 1519 1523 1526 1530 1533 1535 1538 1540 1542 1543 1544 1545 1546 1547 1548 1549 1549 1549 1550 1550 1548 1547 1546 1543 1541 1539 1537 1536
1490 1498 1524 1537 1543 1531 1500 1504 1488 1467 1475 1478 1480 1486 1491 1493 1498 1501 1505 1509 1513 1516 1520 1523 1526 1529 1532 1535 1537 1539 1540 1540 1541 1542 1543 1544 1544 1544 1543 1544 1544 1543 1542 1541 1540 1537 1534 1532 1530
1488 1498 1487 1514 1526 1539 1514 1488 1479 1474 1476 1478 1482 1487 1491 1493 1497 1500 1503 1506 1510 1514 1519 1522 1524 1527 1529 1531 1533 1535 1537 1538 1539 1540 1541 1541 1543 1541 1539 1538 1539 1539 1539 1537 1536 1533 1530 1529 1527
1483 1485 1506 1509 1526 1527 1505 1496 1499 1485 1482 1483 1486 1487 1490 1494 1497 1500 1502 1506 1510 1514 1518 1522 1525 1526 1528 1529 1531 1532 1533 1535 1537 1538 1539 1541 1537 1542 1539 1537 1534 1534 1535 1534 1531 1530 1528 1526 1523
1489 1492 1489 1494 1507 1525 1537 1514 1479 1481 1480 1482 1483 1483 1487 1491 1495 1499 1502 1504 1507 1512 1516 1520 1524 1525 1526 1527 1529 1530 1531 1533 1535 1537 1535 1536 1536 1537 1536 1535 1532 1531 1531 1529 1527 1526 1523 1521 1519
1476 1484 1490 1521 1508 1511 1529 1518 1478 1477 1477 1477 1479 1481 1483 1487 1490 1494 1498 1500 1503 1506 1510 1514 1519 1522 1523 1524 1525 1526 1528 1531 1532 1533 1534 1532 1533 1532 1532 1532 1529 1528 1527 1524 1522 1520 1518 1517 1516